Location: Cosy Dell
(34.2789°N, 117.4537°W)
Time: 12:15:48
(UTC+00:00)

Cosmos 1378 Rocket - Pass Details

Date: 14 July 2020
Orbit: 602 x 626 km, 82.5° (Epoch: 08 August)

Event Time Altitude Azimuth Distance (km) Brightness Sun altitude
Rises 10:24:52 0° 360° (N) 2,898 7.8 -23.9°
Reaches altitude 10° 10:27:10 10° 6° (N) 1,992 6.9 -23.6°
Maximum altitude 10:31:27 49° 81° (E) 809 4.4 -23.0°
Enters shadow 10:33:31 27° 142° (SE) 1,199 4.9 -22.7°
